Greenland, New Hampshire, United States (03840)
Lat: 43.04N, Lon: 70.83W
Wx Zone: NHZ014
Local Info
Past Weather Observations for Sunday, July 5, 2015

NOTE: This archive is for the closest National Weather Service station to Greenland. Information may differ from the station used for current weather conditions.

Click here for Long-term Archive

Time Weather Temperature Dewpoint Humidity Pressure Winds Precip Visibility
23:58
Clear
66°F / 19°C 63°F / 17°C 88% 30.12 in
(1020 mb)
WNW 4.6 mph
(WNW 7 kph)
- 10SM
22:58
Clear
66°F / 19°C 63°F / 17°C 88% 30.12 in
(1020 mb)
W 3.5 mph
(W 6 kph)
- 10SM
21:58
Clear
68°F / 20°C 64°F / 18°C 88% 30.09 in
(1019 mb)
SSW 3.5 mph
(SSW 6 kph)
- 10SM
20:58
Clear
72°F / 22°C 64°F / 18°C 78% 30.09 in
(1019 mb)
W 1.2 mph
(W 2 kph)
- 10SM
19:58
Partly Cloudy
70°F / 21°C 63°F / 17°C 78% 30.06 in
(1018 mb)
Calm - 10SM
18:58
Partly Cloudy
77°F / 25°C 63°F / 17°C 61% 30.04 in
(1017 mb)
W 3.5 mph
(W 6 kph)
- 10SM
17:58
Partly Cloudy
81°F / 27°C 63°F / 17°C 54% 30.04 in
(1017 mb)
SSW 5.8 mph
(SSW 9 kph)
- 10SM
16:58
Mostly Cloudy
82°F / 28°C 61°F / 16°C 48% 30.04 in
(1017 mb)
SSW 6.9 mph
(SSW 11 kph)
- 10SM
15:58
Mostly Cloudy
84°F / 29°C 59°F / 15°C 43% 30.04 in
(1017 mb)
SSW 8.1 mph
(SSW 13 kph)
- 10SM
14:58
Partly Cloudy
84°F / 29°C 59°F / 15°C 43% 30.04 in
(1017 mb)
SSW 6.9 mph
(SSW 11 kph)
- 10SM
13:58
Partly Cloudy
84°F / 29°C 59°F / 15°C 43% 30.04 in
(1017 mb)
SSW 8.1 mph
(SSW 13 kph)
- 10SM
12:58
Partly Cloudy
82°F / 28°C 59°F / 15°C 45% 30.04 in
(1017 mb)
SW 8.1 mph
(SW 13 kph)
- 10SM
11:58
Partly Cloudy
81°F / 27°C 61°F / 16°C 51% 30.04 in
(1017 mb)
SW 5.8 mph
(SW 9 kph)
- 10SM
10:58
Partly Cloudy
79°F / 26°C 61°F / 16°C 54% 30.06 in
(1018 mb)
Variable 1.2 mph
(Variable 2 kph)
- 10SM
09:58
Partly Cloudy
77°F / 25°C 63°F / 17°C 61% 30.04 in
(1017 mb)
NW 5.8 mph
(NW 9 kph)
- 10SM
08:58
Clear
73°F / 23°C 63°F / 17°C 69% 30.04 in
(1017 mb)
NW 6.9 mph
(NW 11 kph)
- 10SM
07:58
Clear
68°F / 20°C 61°F / 16°C 78% 30.06 in
(1018 mb)
WNW 6.9 mph
(WNW 11 kph)
- 10SM
06:58
Clear
64°F / 18°C 59°F / 15°C 83% 30.04 in
(1017 mb)
SSW 8.1 mph
(SSW 13 kph)
- 10SM
05:58
Partly Cloudy
Fog And Mist
61°F / 16°C 57°F / 14°C 88% 30.01 in
(1016 mb)
SSW 9.2 mph
(SSW 15 kph)
- 6SM
04:58
Partly Cloudy
Fog And Mist
59°F / 15°C 57°F / 14°C 94% 30.01 in
(1016 mb)
SSW 6.9 mph
(SSW 11 kph)
- 6SM
03:58
Partly Cloudy
Fog And Mist
59°F / 15°C 57°F / 14°C 94% 29.98 in
(1015 mb)
SSW 5.8 mph
(SSW 9 kph)
- 4SM
02:58
Clear
Fog And Mist
59°F / 15°C 57°F / 14°C 94% 29.98 in
(1015 mb)
W 6.9 mph
(W 11 kph)
- 4SM
01:58
Clear
Fog And Mist
57°F / 14°C 55°F / 13°C 94% 29.98 in
(1015 mb)
SSE 2.3 mph
(SSE 4 kph)
- 5SM
00:58
Clear
Fog And Mist
57°F / 14°C 55°F / 13°C 94% 29.98 in
(1015 mb)
SSW 4.6 mph
(SSW 7 kph)
- 4SM
Time Weather Temperature Dewpoint Humidity Pressure Winds Precip Visibility


Weather for websites

WeatherForYou.com, LLC is not responsible for any damages or problems caused by this service. Current weather conditions are obtained from the closest station including government and personal stations which may have varying degrees of accuracy. Weather forecasts are derived from the NOAA NDFD. Like all things, this site belongs to Jesus Christ... He just trusts us to maintain it. If you have any questions or comments email webmaster@weatherforyou.com

Copyright © 2015, WeatherForYou.com LLC. All rights reserved.